Voltar ao catálogo

CZ-4 DEB

AtivoSSO
NORAD 37614·DEBRIS·🇨🇳 China

Lançado Sep 3, 1990 de Taiyuan Satellite Launch Center

Loading…

Próximas Passagens (próximas 24 horas)

TLE

AtualizadoSource: Space-Track

Época: Sep 13, 2026, 04:33 UTC

1 37614U 90081DA  26256.19011753  .00000319  00000-0  21594-3 0  9994
2 37614  99.0007 240.9038 0074526   5.7234  55.0562 14.06086145128356

Acompanhe CZ-4 DEB em tempo real com AllMySat

Download on the App Store